Phuket, Thailand

2:48 PM +07 on April 28, 2017 (GMT +0700)
Phuket International

Weather History for VTSP - December, 2011

Change the Weather History Date:

Sunday, December 11, 2011

  Actual Average Record
Temperature  
Mean Temperature 82 °F -  
Max Temperature 89 °F 88 °F 95 °F (1996)
Min Temperature 75 °F 74 °F 69 °F (2008)
Cooling Degree Days 17    
Growing Degree Days 32 (Base 50)    
Moisture  
Dew Point 72 °F    
Average Humidity 73    
Maximum Humidity 99    
Minimum Humidity 51    
Precipitation  
Precipitation 0.63 in 0.08 in - ()
Sea Level Pressure  
Sea Level Pressure 29.82 in    
Wind  
Wind Speed 9 mph ()    
Max Wind Speed 17 mph    
Max Gust Speed 24 mph    
Visibility 5.0 miles    
Events Rain    
Averages and records for this station are not official NWS values.
T = Trace of Precipitation, MM = Missing Value Source: Averaged Metar Reports

Daily Weather History Graph

Daily Weather History Graph

Search for Another Location

Airport or City:

Trip Planner

Search our weather history database for the weather conditions in past years. The results will help you decide how hot, cold, wet, or windy it might be!

Date:

Astronomy

Dec. 11, 2011 Rise Set
Actual Time 6:29 AM +07 6:09 PM +07
Civil Twilight 6:07 AM +07 6:32 PM +07
Nautical Twilight 5:40 AM +07 6:58 PM +07
Astronomical Twilight 5:14 AM +07 7:24 PM +07
Moon 6:50 PM +07 (12/11) 6:51 AM +07 (12/11)
Length of Visible Light 12h 25m
Length of Day
11h 39m
Full, 100% of the Moon is Illuminated
Dec 11
Full
Dec 18
Last Quarter
Dec 25
New
Jan 1
First Quarter
Jan 9
Full

Hourly Weather History & Observations

Time (+07) Temp. Heat Index Dew Point Humidity Pressure Visibility Wind Dir Wind Speed Gust Speed Precip Events Conditions
12:00 AM 80.6 °F 84.6 °F 71.6 °F 74% 29.83 in 5.6 mi ENE 10.4 mph - N/A   Scattered Clouds
1:00 AM 81 °F - 76 °F 82% 29.78 in 6 mi East 4.6 mph - -   Scattered Clouds
1:00 AM 80.6 °F 84.6 °F 71.6 °F 74% 29.83 in 5.6 mi ENE 10.4 mph - N/A   Scattered Clouds
1:30 AM 80.6 °F 84.6 °F 71.6 °F 74% 29.80 in 5.6 mi ENE 10.4 mph - N/A   Mostly Cloudy
2:00 AM 80.6 °F 84.6 °F 71.6 °F 74% 29.80 in 5.6 mi ENE 9.2 mph - N/A   Mostly Cloudy
2:30 AM 78.8 °F - 71.6 °F 78% 29.80 in 5.6 mi NE 8.1 mph - N/A   Mostly Cloudy
3:00 AM 78.8 °F - 71.6 °F 78% 29.77 in 5.6 mi ENE 11.5 mph - N/A   Mostly Cloudy
3:30 AM 78.8 °F - 71.6 °F 78% 29.77 in 5.6 mi NE 10.4 mph - N/A   Mostly Cloudy
4:00 AM 78.8 °F - 71.6 °F 78% 29.77 in 5.6 mi ENE 9.2 mph - N/A   Mostly Cloudy
4:30 AM 78.8 °F - 69.8 °F 74% 29.77 in 5.6 mi East 9.2 mph - N/A   Mostly Cloudy
6:00 AM 78.8 °F - 69.8 °F 74% 29.77 in 5.6 mi ENE 9.2 mph - N/A   Mostly Cloudy
6:30 AM 78.8 °F - 69.8 °F 74% 29.77 in 5.6 mi ENE 9.2 mph - N/A   Mostly Cloudy
7:00 AM 79 °F - 75 °F 83% 29.78 in 6 mi ENE 4.6 mph - -   Scattered Clouds
7:00 AM 78.8 °F - 69.8 °F 74% 29.80 in 5.6 mi East 10.4 mph - N/A   Mostly Cloudy
7:30 AM 80.6 °F 83.9 °F 69.8 °F 70% 29.80 in 5.6 mi ENE 8.1 mph - N/A   Mostly Cloudy
8:00 AM 80.6 °F 84.6 °F 71.6 °F 74% 29.83 in 5.6 mi ENE 10.4 mph - N/A   Mostly Cloudy
8:30 AM 80.6 °F 83.9 °F 69.8 °F 70% 29.83 in 5.6 mi ENE 10.4 mph - N/A   Mostly Cloudy
9:00 AM 82.4 °F 87.2 °F 71.6 °F 70% 29.86 in 5.6 mi ENE 10.4 mph - N/A   Mostly Cloudy
9:30 AM 82.4 °F 87.2 °F 71.6 °F 70% 29.86 in 5.6 mi ENE 12.7 mph 24.2 mph N/A   Mostly Cloudy
10:00 AM 86.0 °F 91.8 °F 71.6 °F 62% 29.86 in 5.6 mi ENE 12.7 mph - N/A   Mostly Cloudy
10:30 AM 86.0 °F 91.8 °F 71.6 °F 62% 29.86 in 5.6 mi ENE 11.5 mph - N/A   Mostly Cloudy
11:00 AM 86.0 °F 90.4 °F 69.8 °F 58% 29.86 in 5.6 mi East 13.8 mph - N/A   Mostly Cloudy
11:30 AM 87.8 °F 92.6 °F 69.8 °F 55% 29.86 in 5.6 mi East 13.8 mph - N/A   Mostly Cloudy
12:00 PM 87.8 °F 92.6 °F 69.8 °F 55% 29.83 in 5.6 mi East 13.8 mph - N/A   Mostly Cloudy
12:30 PM 87.8 °F 93.8 °F 71.6 °F 58% 29.83 in 5.6 mi East 13.8 mph - N/A   Mostly Cloudy
1:00 PM 89 °F - 73 °F 51% 29.82 in 6 mi ESE 17.3 mph - -   Scattered Clouds
1:00 PM 87.8 °F 93.8 °F 71.6 °F 58% 29.83 in 5.6 mi East 12.7 mph - N/A   Mostly Cloudy
1:30 PM 86.0 °F 91.8 °F 71.6 °F 62% 29.80 in 5.6 mi East 12.7 mph - N/A   Mostly Cloudy
2:00 PM 87.8 °F 93.8 °F 71.6 °F 58% 29.80 in 5.6 mi East 10.4 mph - N/A   Mostly Cloudy
2:30 PM 89.6 °F 94.7 °F 69.8 °F 52% 29.77 in 5.6 mi ENE 11.5 mph - N/A   Mostly Cloudy
3:00 PM 87.8 °F 93.8 °F 71.6 °F 58% 29.77 in 5.6 mi East 11.5 mph - N/A   Mostly Cloudy
3:30 PM 87.8 °F 93.8 °F 71.6 °F 58% 29.77 in 5.6 mi East 9.2 mph - N/A   Mostly Cloudy
4:00 PM 86.0 °F 91.8 °F 71.6 °F 62% 29.74 in 5.6 mi ENE 8.1 mph - N/A   Mostly Cloudy
4:30 PM 86.0 °F 93.4 °F 73.4 °F 66% 29.77 in 5.6 mi ENE 6.9 mph - N/A   Mostly Cloudy
5:00 PM 80.6 °F 85.4 °F 73.4 °F 79% 29.77 in 1.9 mi SE 11.5 mph - N/A Rain Rain
5:30 PM 75.2 °F - 71.6 °F 89% 29.80 in 1.9 mi SE 15.0 mph - N/A Rain Rain
6:00 PM 75.2 °F - 73.4 °F 94% 29.80 in 3.1 mi ESE 5.8 mph - N/A Rain Rain
6:30 PM 77.0 °F - 75.2 °F 94% 29.80 in 3.1 mi East 8.1 mph - N/A Rain Light Rain
7:00 PM 76 °F - 76 °F 99% 29.79 in 4 mi Calm Calm - - Rain Light Rain
7:00 PM 77.0 °F - 73.4 °F 89% 29.80 in 3.1 mi East 4.6 mph - N/A Rain Light Rain
7:30 PM 77.0 °F - 73.4 °F 89% 29.83 in 4.3 mi ENE 8.1 mph - N/A   Mostly Cloudy
8:00 PM 77.0 °F - 71.6 °F 83% 29.86 in 4.3 mi ENE 6.9 mph - N/A   Mostly Cloudy
8:30 PM 77.0 °F - 71.6 °F 83% 29.89 in 4.3 mi ENE 5.8 mph - N/A   Mostly Cloudy
9:00 PM 78.8 °F - 71.6 °F 78% 29.89 in 4.3 mi ENE 5.8 mph - N/A   Mostly Cloudy
9:30 PM 78.8 °F - 71.6 °F 78% 29.89 in 4.3 mi ENE 6.9 mph - N/A   Mostly Cloudy
10:00 PM 78.8 °F - 71.6 °F 78% 29.89 in 4.3 mi ENE 6.9 mph - N/A   Mostly Cloudy
10:30 PM 78.8 °F - 71.6 °F 78% 29.89 in 4.3 mi ENE 6.9 mph - N/A   Mostly Cloudy
11:00 PM 78.8 °F - 71.6 °F 78% 29.89 in 4.3 mi ENE 8.1 mph - N/A   Mostly Cloudy
11:30 PM 78.8 °F - 71.6 °F 78% 29.89 in 4.3 mi NE 5.8 mph - N/A   Mostly Cloudy